Date String (YYYY-MM-DD hh:mm:ss) UTC,Instrument flags,absolute air pressure of the measurement (hPa),sample flow rate (lpm),inlet stack bypass flow (lpm),air temperature of the measurement (°C),ambient temperature measured by the external sensor (°C),aerosol sample conditioner tube jacket temperature (°C),OPC LED temperature (°C),internal box temperature (°C),relative humidity of the measurement (%),span deviation,mass concentration of particles derived from Lorenz-Mie calculation of OPC scattering (μg/m³),mass concentration of particles derived from Lorenz-Mie calculation of OPC scattering (μg/m³),mass concentration of particles derived from Lorenz-Mie calculation of OPC scattering (μg/m³)
DateTimeUTC,F1_M11,P_M11,Q1_M11,Q2_M11,T1_M11,T2_M11,T3_M11,T4_M11,T5_M11,U1_M11,ZSPAN_M11,X0_M11,X2_M11,X1_M11
2023-10-02 22:00:00,SystemResetWarning,0823.8,4.99,000.00,028.1,024.5,000.0,036.5,029.7,17.9,0000.0,0007.67,0002.84,0002.22
2023-10-02 22:01:00,SystemResetWarning,0823.9,5.00,000.00,028.1,025.0,000.0,036.5,029.7,18.2,0000.0,0007.66,0002.80,0002.21
2023-10-02 22:02:00,SystemResetWarning,0824.0,5.01,000.00,028.1,025.4,000.0,036.6,029.7,18.0,0000.0,0007.55,0002.74,0002.20
2023-10-02 22:03:00,SystemResetWarning,0824.0,4.99,000.00,028.1,025.8,000.0,036.6,029.8,18.2,0000.0,0007.27,0002.74,0002.18
2023-10-02 22:04:00,SystemResetWarning,0823.9,5.00,000.00,028.1,026.2,000.0,036.6,029.8,18.6,0000.0,0006.88,0002.73,0002.17
2023-10-02 22:05:00,SystemResetWarning,0824.0,5.00,000.00,028.1,026.5,000.0,036.6,029.9,18.4,0000.0,0006.50,0002.78,0002.16
2023-10-02 22:06:00,SystemResetWarning,0824.0,5.00,000.00,028.2,026.7,000.0,036.6,030.0,18.5,0000.0,0006.01,0002.87,0002.15
2023-10-02 22:07:00,SystemResetWarning,0823.9,4.99,000.00,028.2,026.9,000.0,036.6,030.0,18.3,0000.0,0006.12,0002.80,0002.13
2023-10-02 22:08:00,SystemResetWarning,0823.9,5.00,000.00,028.2,027.1,000.0,036.6,030.1,18.0,0000.0,0006.31,0002.81,0002.13
2023-10-02 22:09:00,SystemResetWarning,0823.8,5.00,000.00,028.3,027.1,000.0,036.6,030.2,18.0,0000.0,0006.26,0002.78,0002.12
2023-10-02 22:10:00,SystemResetWarning,0823.8,5.00,000.00,028.3,025.6,000.0,036.6,030.0,18.0,0000.0,0007.13,0002.83,0002.13
2023-10-02 22:11:00,SystemResetWarning,0823.8,5.00,000.00,028.2,024.2,000.0,036.5,029.8,18.2,0000.0,0007.20,0002.83,0002.13
2023-10-02 22:12:00,SystemResetWarning,0823.8,5.01,000.00,028.1,024.2,000.0,036.5,029.7,18.4,0000.0,0007.08,0002.84,0002.13
2023-10-02 22:13:00,SystemResetWarning,0823.7,5.01,000.00,028.0,024.5,000.0,036.4,029.6,18.4,0000.0,0007.55,0002.84,0002.13
2023-10-02 22:14:00,SystemResetWarning,0823.7,5.00,000.00,028.0,025.0,000.0,036.5,029.6,18.7,0000.0,0007.28,0002.84,0002.12
2023-10-02 22:15:00,SystemResetWarning,0823.6,5.00,000.00,028.0,025.4,000.0,036.5,029.6,18.8,0000.0,0007.06,0002.84,0002.11
2023-10-02 22:16:00,SystemResetWarning,0823.6,5.00,000.00,028.0,025.8,000.0,036.5,029.7,18.9,0000.0,0007.51,0002.78,0002.10
2023-10-02 22:17:00,SystemResetWarning,0823.6,5.00,000.00,028.0,026.2,000.0,036.5,029.8,18.9,0000.0,0007.81,0002.70,0002.10
2023-10-02 22:18:00,SystemResetWarning,0823.6,5.00,000.00,028.0,026.5,000.0,036.5,029.9,19.1,0000.0,0007.91,0002.73,0002.10
2023-10-02 22:19:00,SystemResetWarning,0823.6,5.00,000.00,028.1,026.7,000.0,036.5,029.9,19.1,0000.0,0008.29,0002.71,0002.09
2023-10-02 22:20:00,SystemResetWarning,0823.5,5.00,000.00,028.1,026.9,000.0,036.5,030.0,19.2,0000.0,0008.26,0002.71,0002.08
2023-10-02 22:21:00,SystemResetWarning,0823.5,5.00,000.00,028.2,027.1,000.0,036.5,030.1,19.1,0000.0,0007.71,0002.65,0002.06
2023-10-02 22:22:00,SystemResetWarning,0823.6,5.00,000.00,028.2,027.2,000.0,036.6,030.1,18.7,0000.0,0007.94,0002.66,0002.06
2023-10-02 22:23:00,SystemResetWarning,0823.6,5.00,000.00,028.3,027.3,000.0,036.6,030.2,18.7,0000.0,0008.99,0002.65,0002.06
2023-10-02 22:24:00,SystemResetWarning,0823.7,4.99,000.00,028.3,026.4,000.0,036.6,030.1,18.8,0000.0,0008.31,0002.64,0002.06
2023-10-02 22:25:00,SystemResetWarning,0823.7,5.00,000.00,028.2,024.6,000.0,036.5,029.8,18.9,0000.0,0008.36,0002.61,0002.05
2023-10-02 22:26:00,SystemResetWarning,0823.7,5.00,000.00,028.1,024.1,000.0,036.5,029.7,18.8,0000.0,0009.62,0002.64,0002.06
2023-10-02 22:27:00,SystemResetWarning,0823.6,5.01,000.00,028.0,024.3,000.0,036.5,029.6,18.8,0000.0,0009.28,0002.66,0002.07
2023-10-02 22:28:00,SystemResetWarning,0823.6,4.99,000.00,028.0,024.7,000.0,036.5,029.5,18.9,0000.0,0009.27,0002.65,0002.07
2023-10-02 22:29:00,SystemResetWarning,0823.6,4.99,000.00,027.9,025.2,000.0,036.5,029.6,18.9,0000.0,0009.16,0002.60,0002.07
2023-10-02 22:30:00,SystemResetWarning,0823.6,5.00,000.00,027.9,025.6,000.0,036.5,029.7,18.9,0000.0,0008.49,0002.60,0002.07
2023-10-02 22:31:00,SystemResetWarning,0823.6,5.01,000.00,028.0,025.9,000.0,036.5,029.7,19.1,0000.0,0008.55,0002.63,0002.07
2023-10-02 22:32:00,SystemResetWarning,0823.6,5.00,000.00,028.0,026.3,000.0,036.5,029.8,19.3,0000.0,0008.58,0002.65,0002.08
2023-10-02 22:33:00,SystemResetWarning,0823.6,4.99,000.00,028.0,026.5,000.0,036.5,029.8,19.4,0000.0,0008.45,0002.65,0002.07
2023-10-02 22:34:00,SystemResetWarning,0823.6,5.00,000.00,028.1,026.7,000.0,036.5,029.9,19.6,0000.0,0007.39,0002.65,0002.07
2023-10-02 22:35:00,SystemResetWarning,0823.6,5.00,000.00,028.1,026.9,000.0,036.5,030.0,19.8,0000.0,0007.25,0002.65,0002.07
2023-10-02 22:36:00,SystemResetWarning,0823.5,5.00,000.00,028.2,027.1,000.0,036.5,030.0,20.0,0000.0,0007.12,0002.64,0002.07
2023-10-02 22:37:00,SystemResetWarning,0823.6,5.00,000.00,028.2,027.2,000.0,036.5,030.1,20.1,0000.0,0004.97,0002.61,0002.07
2023-10-02 22:38:00,SystemResetWarning,0823.5,5.00,000.00,028.3,027.3,000.0,036.6,030.2,19.9,0000.0,0004.58,0002.61,0002.07
2023-10-02 22:39:00,SystemResetWarning,0823.5,5.00,000.00,028.3,027.1,000.0,036.6,030.2,19.7,0000.0,0005.00,0002.61,0002.07
2023-10-02 22:40:00,SystemResetWarning,0823.4,4.98,000.00,028.3,025.3,000.0,036.6,030.0,19.7,0000.0,0006.23,0002.65,0002.07
2023-10-02 22:41:00,SystemResetWarning,0823.5,5.02,000.00,028.2,024.0,000.0,036.5,029.8,19.6,0000.0,0006.20,0002.63,0002.05
2023-10-02 22:42:00,SystemResetWarning,0823.4,5.00,000.00,028.1,024.1,000.0,036.5,029.7,19.8,0000.0,0006.59,0002.63,0002.03
2023-10-02 22:43:00,SystemResetWarning,0823.4,4.99,000.00,028.0,024.4,000.0,036.5,029.5,20.3,0000.0,0007.76,0002.66,0002.01
2023-10-02 22:44:00,SystemResetWarning,0823.4,5.00,000.00,028.0,024.9,000.0,036.5,029.5,20.3,0000.0,0008.40,0002.67,0001.99
2023-10-02 22:45:00,SystemResetWarning,0823.4,5.00,000.00,027.9,025.3,000.0,036.5,029.6,20.2,0000.0,0008.59,0002.64,0001.96
2023-10-02 22:46:00,SystemResetWarning,0823.4,4.99,000.00,027.9,025.7,000.0,036.5,029.7,20.3,0000.0,0009.08,0002.60,0001.94
2023-10-02 22:47:00,SystemResetWarning,0823.4,5.00,000.00,028.0,026.1,000.0,036.5,029.7,20.5,0000.0,0009.01,0002.55,0001.90
2023-10-02 22:48:00,SystemResetWarning,0823.4,5.00,000.00,028.0,026.4,000.0,036.5,029.8,20.4,0000.0,0009.13,0002.57,0001.86
2023-10-02 22:49:00,SystemResetWarning,0823.4,5.00,000.00,028.0,026.6,000.0,036.5,029.9,20.4,0000.0,0009.33,0002.63,0001.83
2023-10-02 22:50:00,SystemResetWarning,0823.5,5.00,000.00,028.1,026.8,000.0,036.5,029.9,20.5,0000.0,0009.02,0002.68,0001.80
2023-10-02 22:51:00,SystemResetWarning,0823.5,4.99,000.00,028.1,027.0,000.0,036.5,030.0,20.4,0000.0,0008.49,0002.63,0001.77
2023-10-02 22:52:00,SystemResetWarning,0823.6,4.99,000.00,028.2,027.1,000.0,036.5,030.1,20.3,0000.0,0008.32,0002.57,0001.75
2023-10-02 22:53:00,SystemResetWarning,0823.6,5.00,000.00,028.2,027.3,000.0,036.5,030.1,20.2,0000.0,0008.14,0002.53,0001.73
2023-10-02 22:54:00,SystemResetWarning,0823.7,5.00,000.00,028.3,026.9,000.0,036.6,030.1,20.2,0000.0,0007.38,0002.43,0001.71
2023-10-02 22:55:00,SystemResetWarning,0823.8,5.00,000.00,028.2,025.1,000.0,036.5,029.9,20.3,0000.0,0006.57,0002.36,0001.69
2023-10-02 22:56:00,SystemResetWarning,0823.8,5.01,000.00,028.1,023.9,000.0,036.5,029.7,20.7,0000.0,0007.19,0002.33,0001.67
2023-10-02 22:57:00,SystemResetWarning,0823.9,5.01,000.00,028.0,024.0,000.0,036.4,029.6,21.3,0000.0,0007.44,0002.32,0001.65
2023-10-02 22:58:00,SystemResetWarning,0823.9,5.01,000.00,027.9,024.3,000.0,036.4,029.5,20.8,0000.0,0008.00,0002.33,0001.62
2023-10-02 22:59:00,SystemResetWarning,0823.9,4.99,000.00,027.9,024.8,000.0,036.4,029.5,21.4,0000.0,0008.25,0002.29,0001.60
